Location: Nakusp
(50.2330°N, 117.8000°W)
Time: 19:32:57
(UTC-07:00)

Daily predictions for brighter satellites

Satellite Brightness Start Highest point End
(mag) Time Altitude Azimuth Time Altitude Azimuth Time Altitude Azimuth
Cosmos 2123 Rocket 4.1 19:35:32 10° N 19:41:55 81° E 19:48:12 10° SSE
Cosmos 2344 3.8 19:35:28 10° SSW 19:42:59 63° ESE 19:51:46 10° NE
Cosmos 2263 Rocket 4.5 19:39:37 10° W 19:44:14 25° NW 19:48:50 10° NNE
H-2A R/B 2.8 19:44:53 10° SSE 19:48:46 66° ENE 19:52:43 10° N
COSMO-SKYMED 1 4.1 19:44:54 10° N 19:49:01 43° WNW 19:53:07 10° SW
Cosmos 2150 Rocket 4.3 19:46:40 10° SSW 19:51:49 74° WNW 19:57:01 10° NNE
Envisat 3.8 19:47:54 10° SE 19:52:21 32° ENE 19:56:49 10° N
Cosmos 1898 Rocket 4.3 19:47:31 10° SW 19:52:45 59° WNW 19:57:58 10° NNE
Cosmos 2297 4.3 19:48:34 10° S 19:53:38 34° ESE 19:58:46 10° NE
Cosmos 1408 Rocket 4.0 19:51:01 10° N 19:55:18 42° ENE 19:59:33 10° SE
Resurs 1-3 3.6 19:51:53 10° SSE 19:56:14 69° ENE 20:00:37 10° N
USA 267 3.9 19:52:00 10° E 19:58:17 51° N 20:04:34 10° WNW
Cosmos 1048 Rocket 3.9 19:54:24 10° NNW 19:59:33 76° ENE 20:04:41 10° SSE
Cosmos 1125 Rocket 3.9 19:56:25 10° S 20:01:16 41° ESE 20:06:10 10° NE
Cosmos 2082 Rocket 2.2 19:56:09 10° NNW 20:01:54 83° ENE 20:07:35 10° SSE
HJ-1C 4.2 20:01:16 10° S 20:04:37 56° W 20:08:01 10° NNW
H-2A R/B 4.2 20:04:21 10° ENE 20:05:15 10° NE 20:06:07 10° NE
Cosmos 1758 3.4 20:03:31 10° S 20:07:23 53° E 20:11:19 10° NNE
ERS-1 Rocket 4.1 20:03:22 10° ESE 20:07:28 26° ENE 20:11:34 10° N
SeaSat 1 3.3 20:03:05 10° SSE 20:07:54 53° WSW 20:12:45 10° NW
ALOS 3.2 20:07:13 10° S 20:11:46 52° W 20:16:22 10° NNW
Helios 1B rocket 3.1 20:08:58 10° NNE 20:12:42 32° E 20:16:24 10° SSE
Timation 2 Rocket 4.0 20:07:05 10° NNW 20:13:32 85° ENE 20:19:40 10° SSE
Cosmos 1953 2.4 20:10:29 10° S 20:14:28 58° E 20:18:29 10° NNE
Cosmos 1271 Rocket 3.6 20:11:00 10° SSE 20:14:30 29° E 20:18:02 10° NNE
Okean 3 Rocket 4.1 20:11:39 10° NNW 20:16:00 62° W 20:20:21 10° S
Meteor 1-29 3.9 20:15:29 10° NE 20:18:29 26° E 20:21:28 10° SSE
Cosmos 1447 Rocket 4.5 20:13:17 10° N 20:19:28 87° E 20:25:38 10° S
Cosmos 1076 Rocket 3.5 20:15:22 10° NNW 20:19:39 84° W 20:23:53 10° S
SAR-Lupe-4 3.5 20:17:05 10° SSE 20:20:39 75° ENE 20:24:15 10° NNW
Cosmos 1766 4.4 20:17:11 10° SSW 20:20:57 48° WNW 20:24:46 10° N
Cosmos 1674 2.6 20:17:23 10° N 20:21:11 72° E 20:24:58 10° SSE
YAOGAN 6 4.0 20:22:03 17° ESE 20:23:50 24° ENE 20:26:53 10° NNE
Cosmos 1939 Rocket 3.4 20:20:09 11° SE 20:23:51 42° ENE 20:27:48 10° N
Cosmos 1459 Rocket 4.3 20:18:26 10° SSE 20:24:17 44° E 20:30:05 10° NNE
Lacrosse 4 Rocket 3.4 20:21:24 10° WSW 20:24:59 30° NW 20:28:38 10° NNE
COSMOS 2487 3.0 20:22:46 10° NNW 20:26:19 61° WSW 20:29:50 10° S
CZ-4B DEB 2.7 20:25:30 12° SSE 20:28:15 58° ENE 20:31:20 10° N
Spot 1 4.4 20:23:35 10° SSE 20:28:20 87° ENE 20:33:23 10° NNW
Lacrosse 5 rocket 1.6 20:27:16 10° WNW 20:31:12 58° SW 20:33:58 17° SE
Cosmos 2173 Rocket 4.2 20:25:29 10° SSE 20:31:23 49° E 20:37:24 10° NNE
Cosmos 482 Debris 3.8 20:32:18 10° W 20:33:57 27° SSW 20:34:19 25° S
ISS -2.0 20:33:10 10° S 20:34:48 16° SSE 20:34:48 16° SSE
Helios 1A 3.0 20:31:26 10° SSE 20:35:36 82° WSW 20:39:51 10° NNW
Cosmos 2251 Rocket 3.7 20:32:53 10° NNW 20:38:08 55° ENE 20:41:55 19° SE
USA 186 2.0 20:36:29 10° S 20:38:38 43° W 20:40:47 10° NNW
SAR-Lupe-1 4.2 20:35:52 10° S 20:39:26 77° WSW 20:43:03 10° NNW
Cosmos 1766 Rocket 3.9 20:36:57 10° NNW 20:41:26 70° W 20:45:53 10° S
Meteor 1-4 Rocket 3.0 20:41:45 10° SSW 20:45:11 59° WNW 20:48:39 10° N
GP-B 3.1 20:42:48 10° S 20:47:14 83° W 20:51:43 10° N
Cosmos 1626 3.8 20:46:31 10° NNE 20:49:14 19° ENE 20:49:14 19° ENE
Cosmos-2242 2.9 20:47:30 10° S 20:51:46 80° E 20:56:03 10° NNE
Cosmos 372 Rocket 3.9 20:48:25 10° SSW 20:53:33 82° ESE 20:58:45 10° NNE
Resurs 01 Rocket 3.6 20:51:16 10° SSW 20:55:07 29° W 20:59:01 10° NW
Cosmos 2369 Rocket 3.9 21:00:18 15° ENE 21:00:18 15° ENE 21:01:56 10° ENE
Cosmos 389 Rocket 3.9 20:59:48 23° ENE 20:59:48 23° ENE 21:01:42 10° NNE
Cosmos 1356 Rocket 3.3 20:57:29 10° N 21:01:37 69° ENE 21:03:29 31° SSE
Cosmos 2016 Rocket 4.0 20:57:14 10° S 21:03:19 61° E 21:09:22 10° NNE
USA 215 3.7 20:59:30 10° ENE 21:05:23 35° SE 21:11:15 10° SSW
Cosmos 1833 Rocket 4.0 21:02:14 10° NW 21:07:24 38° WSW 21:12:33 10° S
MetOp-B 4.4 21:05:13 29° SE 21:07:40 52° ENE 21:12:52 10° N
Lacrosse 5 2.3 21:02:56 10° WSW 21:07:57 61° NNW 21:12:59 10° ENE
Cosmos 1470 3.0 21:04:19 10° SSW 21:08:17 71° W 21:12:16 10° N
Cosmos 2221 3.9 21:10:26 23° ENE 21:10:26 23° ENE 21:13:03 10° NNE
Cosmos 1733 3.5 21:07:25 10° SSW 21:11:17 68° WNW 21:15:11 10° N
Cosmos 1725 Rocket 4.1 21:08:00 19° SSE 21:12:20 50° E 21:18:18 10° NNE
Cosmos 1743 Rocket 3.8 21:08:19 10° NNW 21:12:44 69° W 21:16:07 17° S
Cosmos 1500 Rocket 3.4 21:09:45 10° N 21:14:06 88° W 21:16:19 28° S
SPOT 5 3.4 21:12:49 34° ESE 21:14:49 50° ENE 21:19:56 10° N
Cosmos 1340 Rocket 3.9 21:11:13 10° NNW 21:15:04 43° W 21:18:37 11° SSW
Cosmos 494 Rocket 4.0 21:10:14 10° NNW 21:15:23 79° WSW 21:18:14 27° SSE
BREEZE-M DEB 4.0 21:13:16 10° W 21:16:58 81° SSW 21:16:58 81° SSW
H-2A R/B 3.5 21:17:29 21° NE 21:17:29 21° NE 21:20:20 10° NNE
Cosmos 1805 Rocket 4.3 21:13:35 10° N 21:17:40 35° ENE 21:17:51 35° ENE
Coronas F rocket 3.9 21:16:21 10° N 21:16:29 11° N 21:16:29 11° N
NOAA 11 4.3 21:16:05 33° SE 21:18:27 61° ENE 21:23:53 10° N
CZ-3B DEB 2.4 21:10:37 10° WSW 21:18:54 66° NNW 21:21:29 23° NE
Cosmos 1867 3.7 21:13:42 10° SW 21:19:10 76° NW 21:24:41 10° NE
Cosmos 1184 Rocket 3.6 21:17:09 10° NNW 21:20:28 52° W 21:21:44 32° SSW
Cosmos 2278 Rocket 3.8 21:15:24 10° WSW 21:20:37 36° NW 21:25:51 10° NNE
Cosmos 2100 Rocket 4.2 21:14:41 10° SSW 21:21:01 74° WNW 21:27:26 10° N
BREEZE-M DEB (TANK) 4.0 21:18:20 10° WSW 21:22:07 69° SSE 21:36:02 10° ENE
SL-08 R/B 4.5 21:18:58 10° S 21:25:18 74° E 21:31:44 10° NNE
ATLAS 5 CENTAUR R/B 1.7 21:21:44 10° SW 21:26:32 85° SE 21:31:51 10° NE
Terra 3.2 21:26:48 23° ENE 21:26:53 23° ENE 21:30:34 10° N
Tsikada Rocket 3.9 21:20:58 10° N 21:27:12 79° E 21:30:36 29° SSE
Envisat 4.1 21:26:25 10° S 21:31:15 43° W 21:36:06 10° NNW
Cosmos 2058 2.8 21:29:08 10° N 21:33:20 87° ENE 21:34:00 62° SSE
SL-08 RB Rocket 3.9 21:37:06 52° E 21:37:30 54° ENE 21:42:04 10° N
SL-14 R/B 4.1 21:36:21 10° NNW 21:40:05 46° W 21:41:23 32° SW
USA 267 3.2 21:38:11 38° ESE 21:40:58 79° NNE 21:47:32 10° WNW
H-2A R/B 2.4 21:42:52 47° E 21:43:32 50° ENE 21:48:37 10° N
Cosmos 1802 Rocket 4.4 21:37:37 10° SSW 21:43:42 63° WNW 21:49:52 10° N
Cosmos 2151 3.4 21:40:29 10° NNW 21:44:41 58° W 21:45:51 42° SSW
ERS-1 Rocket 3.5 21:43:18 26° SSW 21:45:57 55° W 21:50:55 10° NNW
Helios 1B rocket 4.4 21:44:20 10° N 21:47:58 30° WNW 21:51:33 10° SW
Cosmos 2219 4.4 21:43:21 10° NNW 21:48:07 27° NE 21:49:12 25° ENE
Cosmos 1842 Rocket 4.2 21:48:44 20° SSW 21:51:40 56° WNW 21:56:00 10° N
MetOp-A 4.3 21:51:40 40° S 21:53:36 70° WSW 21:58:58 10° NNW
ARGOS 3.1 21:55:40 56° SSE 21:56:52 87° WSW 22:02:16 10° NNW
YAOGAN 6 4.1 21:56:29 30° WSW 21:57:16 33° W 22:00:42 10° NNW
MOS 1-B Rocket 4.4 21:55:19 42° SE 21:58:08 75° ENE 22:04:52 10° NNW
USA 245 4.4 22:02:11 48° S 22:03:56 78° WSW 22:10:21 10° NNW
Cosmos 1703 4.1 22:07:32 10° NNW 22:10:56 48° WNW 22:10:56 48° WNW
Cosmos 2233 Rocket 3.8 22:15:53 55° S 22:17:24 89° W 22:23:35 10° N
Meteor 2-1 Rocket 4.3 22:15:53 42° SSW 22:17:52 73° WNW 22:23:31 10° N
Cosmos 1626 3.7 22:21:17 10° NNW 22:23:56 34° WNW 22:23:56 34° WNW
Sich 1 3.7 22:20:44 10° NNW 22:24:13 54° NNW 22:24:13 54° NNW
Cosmos 2297 Rocket 4.1 22:22:12 10° N 22:26:07 19° NE 22:27:19 18° NE
BREEZE-M DEB (TANK) 4.5 22:21:39 10° WSW 22:27:05 65° SSE 22:51:21 10° E
SPOT 1/Viking Rocket 3.8 22:27:13 61° WSW 22:27:30 62° WSW 22:32:42 10° NNW
Cosmos 1666 Rocket 4.3 22:24:14 10° NNW 22:27:33 49° NNW 22:27:33 49° NNW
Cosmos 1633 Rocket 3.9 22:27:00 10° NNW 22:30:18 49° NNW 22:30:18 49° NNW
Cosmos 407 Rocket 4.0 22:29:42 10° NNW 22:34:11 53° NNE 22:34:11 53° NNE
Cosmos 1833 4.2 22:34:05 10° NNW 22:39:23 75° WNW 22:39:23 75° WNW
Cosmos 2369 Rocket 2.3 22:41:59 72° N 22:41:59 72° N 22:47:05 10° NNE
CZ-4C R/B 3.6 22:47:49 28° NE 22:47:49 28° NE 22:50:47 10° NE
Cosmos 2221 3.9 22:47:15 37° WNW 22:47:15 37° WNW 22:50:59 10° N
USA 215 3.1 22:42:20 10° ENE 22:48:55 90° NNW 22:55:28 10° WSW
Lacrosse 5 3.0 22:46:53 10° WNW 22:51:38 38° N 22:52:13 37° NNE
Cosmos 2227 Rocket 3.6 22:47:53 10° NNW 22:52:41 28° NE 22:52:41 28° NE
H-2A R/B 3.7 22:54:35 31° NW 22:54:35 31° NW 22:56:59 10° NNW
Terra 3.0 23:05:41 41° NW 23:05:41 41° NW 23:09:00 10° NNW
Cosmos 1464 Rocket 4.1 23:05:23 73° N 23:05:23 73° N 23:11:03 10° N
Cosmos 1943 Rocket 3.3 23:11:23 36° NNE 23:11:23 36° NNE 23:14:38 10° NNE
ATLAS 5 CENTAUR R/B 3.8 23:07:28 10° W 23:11:53 30° NNW 23:16:42 10° NE
Cosmos 2034 Rocket 4.3 23:22:54 63° N 23:22:54 63° N 23:28:06 10° N
H-2A R/B 3.6 23:23:30 29° W 23:23:30 29° W 23:27:45 10° NW
USA 267 4.0 23:25:31 39° WSW 23:25:31 39° WSW 23:30:31 10° WNW
CZ-3B DEB 4.0 23:26:27 10° WNW 23:28:15 18° WNW 23:28:15 18° WNW
Cosmos 2219 4.1 23:27:12 10° NNW 23:31:07 45° NW 23:31:07 45° NW
NOSS 3-3 (A) 4.5 23:44:06 10° NW 23:51:00 70° NNE 23:51:00 70° NNE
